Regional Weather Roundup
Issued by NWS

Home | Current Version | Previous Version | Graphics & Text | Print | Product List | Glossary On
Versions: 1 2 3 4 5 6 7 8 9 10 11 12 13 14 15 16 17 18 19 20 21 22 23 24 25 26 27 28 29 30 31 32 33 34 35 36 37 38 39 40 41 42 43 44 45 46 47 48 49 50
000
ASUS43 KMKX 252010
RWRWI

WISCONSIN REGIONAL WEATHER ROUNDUP
NATIONAL WEATHER SERVICE MILWAUKEE/SULLIVAN WI
300 PM CDT THU MAY 25 2017

NOTE: "FAIR" INDICATES FEW OR NO CLOUDS BELOW 12,000 FEET WITH NO
SIGNIFICANT WEATHER AND/OR OBSTRUCTIONS TO VISIBILITY.

WIZ001-002-006>008-014>016-023>028-252100-
NORTHWEST WISCONSIN

CITY           SKY/WX    TMP DP  RH WIND       PRES   REMARKS
SUPERIOR ARPT  NOT AVBL
ASHLAND        SUNNY     62  44  51 N13       29.71F
HAYWARD        PTSUNNY   71  46  40 S9        29.67F
SIREN          MOSUNNY   68  47  46 CALM      29.67S
CUMBERLAND     MOSUNNY   68  46  45 S9        29.67F
RICE LAKE      PTSUNNY   69  48  47 E12       29.69S
CHETEK         MOSUNNY   71  52  51 SE9G17    29.67F
LADYSMITH      MOSUNNY   71  52  50 SW5       29.69F
EAU CLAIRE     MOSUNNY   71  50  47 S9        29.66S
MENOMONIE      CLOUDY    70  51  50 SE8       29.66F
NEW RICHMOND   CLOUDY    68  50  53 S8        29.67S
OSCEOLA        PTSUNNY   68  50  52 S5        29.68F
$$

WIZ003>005-009-010-017-018-252100-
NORTH CENTRAL WISCONSIN

CITY           SKY/WX    TMP DP  RH WIND       PRES   REMARKS
MANITOWISH WTR MOSUNNY   70  47  44 SE5       29.69S
ARBOR VITAE    SUNNY     70  48  45 CALM      29.68F
WOODRUFF       SUNNY     70  48  45 CALM      29.68F
RHINELANDER    MOSUNNY   72  47  40 MISG      29.69S
EAGLE RIVER    MOSUNNY   69  42  37 E3        29.69S
LAND O LAKES   CLOUDY    70  43  37 SE3       29.71S
PHILLIPS       CLOUDY    70  47  44 CALM      29.67F
TOMAHAWK       MOSUNNY   70  47  42 NE3       29.68S
MEDFORD        MOSUNNY   69  51  52 S7        29.67F
MERRILL        MOSUNNY   72  49  44 S6        29.67F
$$

WIZ029-030-035-036-043>047-252100-
CENTRAL WISCONSIN

CITY           SKY/WX    TMP DP  RH WIND       PRES   REMARKS
WAUSAU         PTSUNNY   71  49  45 VRB5      29.65F
MOSINEE        MOSUNNY   70  48  46 E3        29.68F
MARSHFIELD     MOSUNNY   71  51  49 VRB6      29.67S
STEVENS POINT  MOSUNNY   70  49  47 E10       29.68S
WAUPACA        MOSUNNY   73  50  44 E7        29.68S
WAUTOMA        MOSUNNY   71  51  49 NE8       29.68R
WISC RAPIDS    MOSUNNY   71  50  47 E8        29.68S
CAMP DOUGLAS   PTSUNNY   72  52  49 CALM      29.66F
$$

WIZ011>013-019>022-031-037>040-048>050-252100-
NORTHEAST WISCONSIN

CITY           SKY/WX    TMP DP  RH WIND       PRES   REMARKS
ANTIGO         PTSUNNY   69  50  50 NE6       29.69S
SHAWANO        PTSUNNY   71  52  50 E9        29.67S
OCONTO         MOSUNNY   67  52  57 E12       29.67R
STURGEON BAY   CLOUDY    63  51  65 N12       29.67S
GREEN BAY      SUNNY     67  55  65 NE18G26   29.68R
MANITOWOC      SUNNY     64  53  67 N8G16     29.67R
APPLETON       PTSUNNY   68  46  45 E12G17    29.66S
CLINTONVILLE   MOSUNNY   72  50  46 NE6       29.67S
OSHKOSH        SUNNY     68  53  58 N10       29.67S
$$

WIZ032>034-041-042-053>061-252100-
SOUTHWEST WISCONSIN

CITY           SKY/WX    TMP DP  RH WIND       PRES   REMARKS
LA CROSSE      SUNNY     72  55  55 VRB3      29.66F
SPARTA         PTSUNNY   71  53  53 E8        29.67F
VIROQUA        PTSUNNY   68  52  56 MISG      29.68F
BOSCOBEL       MOSUNNY   72  53  51 VRB5      29.67F
PRAIRIE DU CHI SUNNY     70  49  46 E5        29.66F
PLATTEVILLE    MOSUNNY   67  56  70 E3        29.69F
$$

WIZ056-057-062-063-064-067-068-252100-
SOUTH CENTRAL WISCONSIN

CITY           SKY/WX    TMP DP  RH WIND       PRES   REMARKS
REEDSBURG      MOSUNNY   69  54  57 CALM      29.67S
BARABOO/DELLS  PTSUNNY   71  51  49 SE6       29.67F
LONE ROCK      MOSUNNY   69  54  58 SE3       29.67F
MINERAL POINT  PTSUNNY   68  55  64 CALM      29.69S
MADISON        PTSUNNY   68  52  56 NE6       29.67R
MIDDLETON      MOSUNNY   70  53  54 CALM      29.68S
WATERTOWN      MOSUNNY   68  55  63 NE7       29.66S
MONROE         MOSUNNY   68  52  56 NE3       29.68S
JANESVILLE     PTSUNNY   68  54  60 N12       29.67S
$$

WIZ051-052-058>065-066-070>072-252100-
SOUTHEAST WISCONSIN

CITY           SKY/WX    TMP DP  RH WIND       PRES   REMARKS
MILWAUKEE      MOSUNNY   61  52  72 N15G23    29.66R
WAUKESHA       PTSUNNY   64  48  55 NE10G16   29.66S
MILWAUKEE/TIMM MOSUNNY   68  48  49 NE12      29.65S
RACINE         SUNNY     61  51  70 N17G23    29.67R
KENOSHA        MOSUNNY   68  55  63 N12G23    29.65R
FOND DU LAC    PTSUNNY   67  51  56 NE9       29.67S
SHEBOYGAN      SUNNY     64  56  75 NE16      29.66R
WEST BEND      PTSUNNY   66  48  52 NE7G16    29.65S
JUNEAU         SUNNY     67  54  63 NE8       29.67F
$$

LSZ147-162-252100-
LAKE SUPERIOR

STATION/POSITION TIME  TEMP    WIND        PRES    WAVE
                       AIR SEA DIR/SP/G            HT/PER
                 (UTC) (F)     (DEG/KT/KT) (MB)    (FT/S)
$$

LMZ867-665-643>646-252100-
LAKE MICHIGAN

STATION/POSITION TIME  TEMP    WIND        PRES    WAVE
                       AIR SEA DIR/SP/G            HT/PER
                 (UTC) (F)     (DEG/KT/KT) (MB)    (FT/S)
$$

TC  - TEMPERATURE IN CELSIUS
VSB - VISIBILITY IN STATUTE MILES
WCI - WIND CHILL INDEX
HX  - HEAT INDEX




USA.gov is the U.S. government's official web portal to all federal, state and local government web resources and services.